Retour au catalogue

COSMOS 2435

GLONASS

ActifNavigationMEO
NORAD 32394·PAYLOAD·🇷🇺 Russia

Lancé Dec 25, 2007 depuis Baikonur Cosmodrome

Loading…

Prochains Passages (prochaines 24 heures)

TLE

FraisSource: Space-Track

Époque: Sep 14, 2026, 00:21 UTC

1 32394U 07065B   26257.01520103  .00000018  00000-0  00000-0 0  9992
2 32394  64.3226 188.9166 0025257 358.4227   1.5730  2.13115365145639

Suivez COSMOS 2435 en temps réel avec AllMySat

Download on the App Store